Thunder radar more information blitzortung!


Löydät sääaseman tiedot myös:

European Weather Network

Finland Weather Exchange

Weather Underground

AWEKAS



Weather Underground säähistoriasivu

Päivittäin yhteenveto Tammikuu 29, 2017 Yksiköt:  Englantilaiset    Metriset   Molemmat
« Edellinen Päivä
Seuraava Päivä »
Päivittäin Viikoittain Kuukausittain Vuosittain Mukautettu
  Korkea: Matala: Keskiarvo:
Lämpötila: TemperatureC °F -0.6 °F 0.2 °F
Kastepiste: DewpointC °F -2.3 °F -1.2 °F
Kosteus: Humidity % 82 % 89 %
Tuulen nopeus: WindSpeedKMH mph 0.0 mph 1.7 mph
Tuulenpuuska: WindSpeedGustKMH mph - -
Tuuli:- - SSW
Ilmanpaine: PressurehPa in 1006.7 in -
Sade: 0.0 in    
Historical Graphs
 
 
Taulukkotiedot Tammikuu 29, 2017
Aika Lämpötila Kastepiste Ilmanpaine Tuuli Tuulen nopeus Tuulenpuuska Kosteus Sademäärä (tunneittain)
TemperatureC °F DewpointC °F PressurehPa in Calm     Humidity % HourlyPrecipMM in
00:00 -0.3 °F -0.8 °F 1017.8 in Calm     96 % 0.0 in
00:15 -0.3 °F -0.8 °F 1017.8 in Calm     96 % 0.0 in
00:30 -0.3 °F -0.8 °F 1017.5 in Calm     96 % 0.0 in
00:45 -0.3 °F -0.8 °F 1017.5 in Calm     96 % 0.0 in
01:00 -0.2 °F -0.8 °F 1017.5 in Calm     96 % 0.0 in
01:15 -0.2 °F -0.7 °F 1017.2 in Calm     96 % 0.0 in
01:30 -0.2 °F -0.7 °F 1017.2 in Calm     96 % 0.0 in
01:45 -0.1 °F -0.7 °F 1017.2 in Calm     96 % 0.0 in
02:00 -0.1 °F -0.7 °F 1016.8 in Calm     96 % 0.0 in
02:15 -0.2 °F -0.9 °F 1016.8 in Calm     95 % 0.0 in
02:30 -0.2 °F -0.7 °F 1016.5 in Calm     96 % 0.0 in
02:45 -0.1 °F -0.8 °F 1016.5 in Calm     95 % 0.0 in
03:00 -0.1 °F -0.8 °F 1016.5 in Calm     95 % 0.0 in
03:15 -0.1 °F -0.8 °F 1016.5 in Calm     95 % 0.0 in
03:30 -0.1 °F -0.8 °F 1016.5 in Calm     95 % 0.0 in
03:45 -0.2 °F -0.9 °F 1016.5 in Calm     95 % 0.0 in
04:00 -0.2 °F -0.9 °F 1016.5 in Calm     95 % 0.0 in
04:15 -0.3 °F -1.0 °F 1016.1 in Calm     95 % 0.0 in
04:30 -0.3 °F -1.1 °F 1016.1 in Calm     94 % 0.0 in
04:45 -0.3 °F -1.1 °F 1016.1 in Calm     94 % 0.0 in
05:00 -0.2 °F -1.1 °F 1015.8 in Calm     94 % 0.0 in
05:15 -0.2 °F -1.1 °F 1015.8 in Calm     94 % 0.0 in
05:30 -0.2 °F -1.1 °F 1015.8 in Calm     94 % 0.0 in
05:45 -0.3 °F -1.1 °F 1015.8 in Calm     94 % 0.0 in
06:00 -0.3 °F -1.3 °F 1015.8 in Calm     93 % 0.0 in
06:15 -0.3 °F -1.3 °F 1015.8 in Calm     93 % 0.0 in
06:30 -0.3 °F -1.3 °F 1015.8 in Calm     93 % 0.0 in
06:45 -0.3 °F -1.3 °F 1015.8 in Calm     93 % 0.0 in
07:00 -0.3 °F -1.3 °F 1015.8 in Calm     93 % 0.0 in
07:15 -0.3 °F -1.3 °F 1015.8 in Calm     93 % 0.0 in
07:30 -0.4 °F -1.4 °F 1015.5 in Calm     93 % 0.0 in
07:45 -0.4 °F -1.5 °F 1015.5 in Calm     92 % 0.0 in
08:00 -0.3 °F -1.5 °F 1015.5 in Calm     92 % 0.0 in
08:15 -0.4 °F -1.5 °F 1015.5 in Calm     92 % 0.0 in
08:30 -0.4 °F -1.6 °F 1015.5 in Calm     92 % 0.0 in
08:45 -0.5 °F -1.6 °F 1015.1 in Calm     92 % 0.0 in
09:00 -0.6 °F -1.8 °F 1015.1 in Calm     91 % 0.0 in
09:15 -0.6 °F -1.9 °F 1015.1 in Calm     91 % 0.0 in
09:30 -0.6 °F -1.8 °F 1015.1 in Calm     91 % 0.0 in
09:45 -0.6 °F -1.8 °F 1015.1 in Calm     91 % 0.0 in
10:00 -0.6 °F -1.8 °F 1015.1 in Calm     91 % 0.0 in
10:15 -0.5 °F -1.8 °F 1015.1 in Calm     91 % 0.0 in
10:30 -0.4 °F -1.7 °F 1014.8 in Calm     91 % 0.0 in
10:45 -0.4 °F -1.6 °F 1014.8 in Calm     92 % 0.0 in
11:00 -0.4 °F -1.5 °F 1014.8 in Calm     92 % 0.0 in
11:15 -0.3 °F -1.5 °F 1014.8 in Calm     92 % 0.0 in
11:30 -0.3 °F -1.3 °F 1014.4 in Calm     93 % 0.0 in
11:45 -0.2 °F -1.1 °F 1014.4 in Calm     94 % 0.0 in
12:00 -0.2 °F -1.1 °F 1014.1 in Calm     94 % 0.0 in
12:15 -0.2 °F -1.1 °F 1014.1 in Calm     94 % 0.0 in
12:30 -0.2 °F -1.0 °F 1014.1 in Calm     94 % 0.0 in
12:45 -0.2 °F -1.2 °F 1013.8 in Calm     93 % 0.0 in
13:00 -0.2 °F -1.3 °F 1013.8 in Calm     92 % 0.0 in
13:15 -0.1 °F -1.3 °F 1013.4 in Calm     91 % 0.0 in
13:30 0.1 °F -1.4 °F 1013.1 in Calm     90 % 0.0 in
13:45 0.2 °F -1.4 °F 1013.1 in Calm     89 % 0.0 in
14:00 0.3 °F -1.4 °F 1012.8 in Calm     88 % 0.0 in
14:15 0.4 °F -1.3 °F 1012.8 in Calm     88 % 0.0 in
14:30 0.5 °F -1.4 °F 1012.4 in Calm     87 % 0.0 in
14:45 0.6 °F -1.3 °F 1012.1 in Calm     87 % 0.0 in
15:00 0.7 °F -1.4 °F 1011.7 in Calm     86 % 0.0 in
15:15 0.8 °F -1.1 °F 1011.7 in Calm     87 % 0.0 in
15:30 0.8 °F -1.1 °F 1011.7 in Calm     87 % 0.0 in
15:45 0.9 °F -1.0 °F 1011.4 in Calm     87 % 0.0 in
16:00 0.9 °F -1.0 °F 1011.1 in Calm     87 % 0.0 in
16:15 0.9 °F -0.8 °F 1011.1 in Calm     88 % 0.0 in
16:30 1.0 °F -0.8 °F 1011.1 in Calm     88 % 0.0 in
16:45 1.1 °F -1.0 °F 1010.7 in Calm     86 % 0.0 in
17:00 1.1 °F -1.1 °F 1010.7 in Calm     85 % 0.0 in
17:15 1.2 °F -1.4 °F 1010.4 in Calm     83 % 0.0 in
17:30 1.2 °F -1.4 °F 1010.0 in Calm     83 % 0.0 in
17:45 1.1 °F -1.1 °F 1010.0 in Calm     85 % 0.0 in
18:00 1.1 °F -1.0 °F 1010.0 in Calm     86 % 0.0 in
18:15 1.0 °F -0.9 °F 1009.7 in Calm     87 % 0.0 in
18:30 0.9 °F -1.0 °F 1009.7 in Calm     87 % 0.0 in
18:45 1.0 °F -1.1 °F 1009.4 in Calm     86 % 0.0 in
19:00 1.1 °F -1.2 °F 1009.0 in Calm     85 % 0.0 in
19:15 1.1 °F -1.2 °F 1009.0 in Calm     85 % 0.0 in
19:30 1.1 °F -1.0 °F 1008.7 in Calm     86 % 0.0 in
19:45 0.9 °F -0.8 °F 1008.4 in Calm     88 % 0.0 in
20:00 0.9 °F -0.8 °F 1008.0 in Calm     88 % 0.0 in
20:15 1.0 °F -0.8 °F 1008.0 in Calm     88 % 0.0 in
20:30 1.1 °F -0.8 °F 1007.7 in Calm     87 % 0.0 in
20:45 1.3 °F -1.1 °F 1007.7 in Calm     84 % 0.0 in
21:00 1.4 °F -1.2 °F 1007.3 in SSW 3.2 mph 33.8 mph 83 % 0.0 in
21:15 1.3 °F -1.2 °F 1007.3 in SSW 16.1 mph 32.2 mph 83 % 0.0 in
21:30 1.3 °F -1.1 °F 1007.0 in SSW 14.5 mph 33.8 mph 84 % 0.0 in
21:45 1.2 °F -1.0 °F 1007.0 in SSW 14.5 mph 32.2 mph 85 % 0.0 in
22:00 1.3 °F -1.0 °F 1006.7 in SSW 16.1 mph 37.0 mph 85 % 0.0 in
22:15 1.2 °F -1.0 °F 1006.7 in SSW 14.5 mph 33.8 mph 85 % 0.0 in
22:30 1.2 °F -0.9 °F 1006.7 in SSW 12.9 mph 30.6 mph 86 % 0.0 in
22:45 1.1 °F -1.1 °F 1006.7 in SSW 11.3 mph 30.6 mph 85 % 0.0 in
23:00 1.0 °F -1.4 °F 1007.0 in SSW 16.1 mph 38.6 mph 84 % 0.0 in
23:15 0.8 °F -1.8 °F 1007.0 in SSW 14.5 mph 30.6 mph 83 % 0.0 in
23:30 0.7 °F -2.1 °F 1007.0 in SSW 16.1 mph 45.1 mph 82 % 0.0 in
23:45 0.4 °F -2.3 °F 1007.3 in SSW 14.5 mph 29.0 mph 82 % 0.0 in
Esan sääasema
Terveisin Weather Underground - 2.75 mb

Alkuperäinen skripti  Jim McMurry - jmcmurry@mwt.net Sovitettu myös templatelle  Wim van der Kuil - Leuven-Template.eu

Laitteet joita käytämme:

Sääasema
Davis VP2

Sääasemaohjelma
Cumulus

Sääaseman tietokone
Asus EeePC

Palveluntarjoaja
Suncomet

Davis VP2

Cumulus

Asus EeePC

Suncomet